Weather History for Thedford, NE

Change the Weather History Date:

Friday, September 6, 2013

  Actual Average (KLBF) Record (KLBF)
Temperature  
Mean Temperature 84 °F 67 °F  
Max Temperature 102 °F 82 °F 103 °F (2013)
Min Temperature 66 °F 51 °F 27 °F (1956)
Degree Days  
Heating Degree Days 0 2  
Month to date heating degree days 12  
Since 1 July heating degree days 32  
Cooling Degree Days 19 4  
Month to date cooling degree days 27  
Year to date cooling degree days 722  
Growing Degree Days 34 (Base 50)    
Moisture  
Dew Point 55 °F    
Average Humidity 41    
Maximum Humidity 63    
Minimum Humidity 15    
Precipitation  
Precipitation 0.00 in 0.05 in 1.45 in (1927)
Month to date precipitation 0.29  
Year to date precipitation 16.51  
Snow  
Snow 0.00 in 0.00 in 0.00 in (2002)
Month to date snowfall 0.0  
Since 1 July snowfall 0.0  
Since 1 September snowfall 0.0  
Snow Depth -    
Sea Level Pressure  
Sea Level Pressure 29.99 in    
Wind  
Wind Speed 8 mph (SSW)    
Max Wind Speed 13 mph    
Max Gust Speed -    
Visibility 10 miles    
Events      
T = Trace of Precipitation, MM = Missing Value Source: NWS Daily Summary

Daily Weather History Graph

Daily Weather History Graph

Search for Another Location

Airport:

Trip Planner

Search our weather history database for the weather conditions in past years. The results will help you decide how hot, cold, wet, or windy it might be!

Date:

Astronomy

Sep. 06, 2013 Rise Set
Actual Time 7:13 AM CDT 8:06 PM CDT
Civil Twilight 6:44 AM CDT 8:35 PM CDT
Nautical Twilight 6:11 AM CDT 9:08 PM CDT
Astronomical Twilight 5:36 AM CDT 9:43 PM CDT
Moon 8:29 AM CDT (9/6) 8:29 PM CDT (9/6)
Length of Visible Light 13h 50m
Length of Day
12h 53m
New Moon, 2% of the Moon is Illuminated
Sep 6
New Moon
Sep 12
First Quarter
Sep 19
Full
Sep 26
Last Quarter
Oct 4
New

Hourly Weather History & Observations

Time (CDT) Temp. Heat Index Dew Point Humidity Pressure Visibility Wind Dir Wind Speed Gust Speed Precip Events Conditions
12:15 AM 75.2 °F - 57.6 °F 54% 30.07 in 10.0 mi SSE 11.5 mph - N/A   Clear
12:35 AM 74.8 °F - 57.4 °F 54% 30.07 in 10.0 mi SSE 10.4 mph - N/A   Clear
12:55 AM 74.3 °F - 57.6 °F 56% 30.07 in 10.0 mi SSE 10.4 mph - N/A   Clear
1:15 AM 74.3 °F - 57.2 °F 55% 30.07 in 10.0 mi SSE 11.5 mph - N/A   Clear
1:35 AM 74.5 °F - 57.2 °F 55% 30.07 in 10.0 mi SSE 12.7 mph - N/A   Clear
1:55 AM 74.1 °F - 57.4 °F 56% 30.07 in 10.0 mi SSE 10.4 mph - N/A   Clear
2:15 AM 73.2 °F - 57.4 °F 57% 30.07 in 10.0 mi SSE 9.2 mph - N/A   Clear
2:35 AM 72.1 °F - 57.6 °F 60% 30.07 in 10.0 mi SSE 8.1 mph - N/A   Clear
2:55 AM 71.6 °F - 57.7 °F 62% 30.06 in 10.0 mi SSE 6.9 mph - N/A   Clear
3:15 AM 70.9 °F - 57.4 °F 62% 30.05 in 10.0 mi SSE 5.8 mph - N/A   Clear
3:35 AM 70.3 °F - 57.4 °F 63% 30.05 in 10.0 mi SSE 5.8 mph - N/A   Clear
3:55 AM 70.3 °F - 57.2 °F 63% 30.04 in 10.0 mi SSE 5.8 mph - N/A   Clear
4:15 AM 70.3 °F - 56.3 °F 61% 30.04 in 10.0 mi South 5.8 mph - N/A   Clear
4:35 AM 70.9 °F - 55.6 °F 58% 30.03 in 10.0 mi South 9.2 mph - N/A   Clear
4:55 AM 71.1 °F - 55.2 °F 57% 30.03 in 10.0 mi South 9.2 mph - N/A   Clear
5:15 AM 70.3 °F - 54.9 °F 58% 30.03 in 10.0 mi South 8.1 mph - N/A   Clear
5:35 AM 69.8 °F - 54.7 °F 59% 30.02 in 10.0 mi South 5.8 mph - N/A   Clear
5:55 AM 69.8 °F - 53.8 °F 57% 30.02 in 10.0 mi South 8.1 mph - N/A   Clear
6:15 AM 69.8 °F - 53.6 °F 56% 30.02 in 10.0 mi South 8.1 mph - N/A   Clear
6:35 AM 68.9 °F - 53.6 °F 58% 30.02 in 10.0 mi South 6.9 mph - N/A   Clear
6:55 AM 68.0 °F - 53.4 °F 60% 30.02 in 10.0 mi Calm Calm - N/A   Clear
7:15 AM 66.7 °F - 53.2 °F 62% 30.02 in 10.0 mi South 6.9 mph - N/A   Clear
7:35 AM 68.4 °F - 52.7 °F 57% 30.01 in 10.0 mi South 12.7 mph - N/A   Clear
7:55 AM 68.9 °F - 52.3 °F 55% 30.01 in 10.0 mi SSW 10.4 mph - N/A   Clear
8:15 AM 69.8 °F - 51.8 °F 53% 30.01 in 10.0 mi SSW 9.2 mph - N/A   Clear
8:35 AM 71.6 °F - 51.6 °F 49% 30.01 in 10.0 mi SW 9.2 mph - N/A   Clear
8:55 AM 73.4 °F - 51.4 °F 46% 30.01 in 10.0 mi SSW 8.1 mph - N/A   Clear
9:15 AM 75.2 °F - 51.4 °F 43% 30.01 in 10.0 mi SW 11.5 mph - N/A   Clear
9:35 AM 76.8 °F - 51.1 °F 40% 30.01 in 10.0 mi SW 10.4 mph - N/A   Clear
9:55 AM 78.4 °F - 51.8 °F 39% 30.02 in 10.0 mi SW 6.9 mph - N/A   Clear
10:15 AM 80.6 °F - 52.0 °F 37% 30.01 in 10.0 mi SW 10.4 mph - N/A   Clear
10:35 AM 82.6 °F - 51.6 °F 34% 30.02 in 10.0 mi SW 10.4 mph - N/A   Clear
10:55 AM 84.6 °F - 52.9 °F 33% 30.02 in 10.0 mi SW 9.2 mph - N/A   Clear
11:15 AM 86.2 °F - 52.9 °F 32% 30.01 in 10.0 mi SW 8.1 mph - N/A   Clear
11:35 AM 88.0 °F 85.9 °F 53.8 °F 31% 30.01 in 10.0 mi SW 6.9 mph - N/A   Clear
11:55 AM 89.8 °F 87.5 °F 53.8 °F 29% 30.01 in 10.0 mi SW 8.1 mph - N/A   Clear
12:15 PM 91.6 °F 89.6 °F 54.7 °F 29% 30.00 in 10.0 mi SW 6.9 mph - N/A   Clear
12:35 PM 93.0 °F 91.1 °F 55.2 °F 28% 30.00 in 10.0 mi SSW 8.1 mph - N/A   Clear
12:55 PM 93.7 °F 91.4 °F 54.1 °F 26% 29.99 in 10.0 mi SW 8.1 mph - N/A   Clear
1:15 PM 95.5 °F 93.1 °F 53.1 °F 24% 29.98 in 10.0 mi South 5.8 mph - N/A   Clear
1:35 PM 96.8 °F 94.7 °F 54.3 °F 24% 29.98 in 10.0 mi SSW 6.9 mph - N/A   Clear
1:55 PM 97.7 °F 95.6 °F 54.5 °F 23% 29.97 in 10.0 mi South 4.6 mph - N/A   Clear
2:15 PM 98.6 °F 96.4 °F 54.1 °F 22% 29.97 in 10.0 mi SSW 3.5 mph - N/A   Clear
2:35 PM 99.3 °F 97.0 °F 53.1 °F 21% 29.97 in 10.0 mi SSW 4.6 mph - N/A   Clear
2:55 PM 99.7 °F - 51.4 °F 20% 29.96 in 10.0 mi SW 4.6 mph - N/A   Clear
3:15 PM 100.4 °F - 50.7 °F 19% 29.96 in 10.0 mi South 4.6 mph - N/A   Clear
3:35 PM 101.1 °F - 50.0 °F 18% 29.95 in 10.0 mi SSW 5.8 mph - N/A   Clear
3:55 PM 101.5 °F - 48.9 °F 17% 29.95 in 10.0 mi SSW 5.8 mph - N/A   Clear
4:15 PM 102.0 °F - 47.7 °F 16% 29.94 in 10.0 mi SSW 3.5 mph - N/A   Clear
4:35 PM 102.2 °F - 48.7 °F 16% 29.93 in 10.0 mi WNW 4.6 mph - N/A   Clear
4:55 PM 102.6 °F - 46.2 °F 15% 29.92 in 10.0 mi West 5.8 mph - N/A   Clear
5:15 PM 102.7 °F - 47.3 °F 15% 29.92 in 10.0 mi West 3.5 mph - N/A   Clear
5:35 PM 100.9 °F - 48.7 °F 17% 29.92 in 10.0 mi WSW 4.6 mph - N/A   Clear
5:55 PM 98.4 °F - 52.2 °F 21% 29.92 in 10.0 mi Calm Calm - N/A   Clear
6:15 PM 93.0 °F 91.7 °F 56.8 °F 30% 29.92 in 10.0 mi Calm Calm - N/A   Clear
6:35 PM 94.8 °F - 52.5 °F 24% 29.92 in 10.0 mi Calm Calm - N/A   Clear
6:55 PM 90.0 °F 88.8 °F 58.1 °F 34% 29.92 in 10.0 mi Calm Calm - N/A   Clear
7:15 PM 92.1 °F 90.8 °F 57.7 °F 31% 29.91 in 10.0 mi Calm Calm - N/A   Clear
7:35 PM 88.5 °F 89.8 °F 64.0 °F 44% 29.91 in 10.0 mi Calm Calm - N/A   Clear
7:55 PM 88.9 °F 88.0 °F 58.5 °F 36% 29.92 in 10.0 mi Calm Calm - N/A   Clear
8:15 PM 84.9 °F 84.6 °F 59.5 °F 42% 29.92 in 10.0 mi West 4.6 mph - N/A   Clear
8:35 PM 83.8 °F 83.8 °F 59.9 °F 44% 29.93 in 10.0 mi Calm Calm - N/A   Clear
8:55 PM 84.2 °F 84.0 °F 59.4 °F 43% 29.93 in 10.0 mi Calm Calm - N/A   Clear
9:15 PM 84.2 °F 83.5 °F 57.7 °F 40% 29.94 in 10.0 mi West 4.6 mph - N/A   Clear
9:35 PM 84.7 °F 83.9 °F 57.2 °F 39% 29.93 in 10.0 mi West 3.5 mph - N/A   Clear
9:55 PM 78.6 °F - 61.3 °F 55% 29.93 in 10.0 mi Calm Calm - N/A   Clear
10:15 PM 80.1 °F 80.9 °F 60.1 °F 50% 29.93 in 10.0 mi West 3.5 mph - N/A   Clear
10:35 PM 79.9 °F - 59.7 °F 50% 29.92 in 10.0 mi Calm Calm - N/A   Clear
10:55 PM 80.6 °F 80.8 °F 57.4 °F 45% 29.93 in 10.0 mi WSW 3.5 mph - N/A   Clear
11:15 PM 81.1 °F 80.9 °F 55.6 °F 41% 29.95 in 10.0 mi Calm Calm - N/A   Clear
11:35 PM 80.2 °F 80.5 °F 57.0 °F 45% 29.95 in 10.0 mi Calm Calm - N/A   Clear
11:55 PM 78.8 °F - 57.0 °F 47% 29.95 in 10.0 mi SW 6.9 mph - N/A   Clear